Weather History for Aurora, IL

Change the Weather History Date:

Tuesday, January 22, 2013

  Actual Average Record
Temperature  
Mean Temperature 5 °F 21 °F  
Max Temperature 12 °F 29 °F 50 °F (2002)
Min Temperature -3 °F 12 °F -6 °F (2011)
Degree Days  
Heating Degree Days 60 45  
Month to date heating degree days 887 970  
Since 1 July heating degree days 3340 3619  
Cooling Degree Days 0 0  
Month to date cooling degree days 0 0  
Year to date cooling degree days 0 0  
Moisture  
Dew Point -5 °F    
Average Humidity 65    
Maximum Humidity 79    
Minimum Humidity 50    
Precipitation  
Precipitation 0.00 in 0.05 in 0.18 in (1999)
Month to date precipitation 0.83 0.95  
Year to date precipitation 0.83 0.95  
Sea Level Pressure  
Sea Level Pressure 30.38 in    
Wind  
Wind Speed 11 mph (WNW)    
Max Wind Speed 20 mph    
Max Gust Speed 25 mph    
Visibility 10 miles    
Events      
T = Trace of Precipitation, MM = Missing Value Source: NWS Daily Summary

Daily Weather History Graph

Daily Weather History Graph

Search for Another Location

Airport:

Trip Planner

Search our weather history database for the weather conditions in past years. The results will help you decide how hot, cold, wet, or windy it might be!

Date:

Astronomy

Jan. 22, 2013 Rise Set
Actual Time 7:14 AM CST 4:57 PM CST
Civil Twilight 6:44 AM CST 5:27 PM CST
Nautical Twilight 6:10 AM CST 6:01 PM CST
Astronomical Twilight 5:37 AM CST 6:34 PM CST
Moon 1:19 PM CST 3:36 AM CST
Length of Visible Light 10h 42m
Length of Day
9h 42m
Waxing Gibbous, 83% of the Moon is Illuminated
Jan 22
Waxing Gibbous
Jan 26
Full
Feb 3
Last Quarter
Feb 10
New
Feb 17
First Quarter

Hourly Weather History & Observations

Time (CST) Temp. Windchill Dew Point Humidity Pressure Visibility Wind Dir Wind Speed Gust Speed Precip Events Conditions
12:52 AM 1.9 °F -14.7 °F -6.0 °F 69% 30.32 in 10.0 mi WNW 11.5 mph - N/A   Clear
1:52 AM 1.9 °F -14.7 °F -6.0 °F 69% 30.33 in 10.0 mi NW 11.5 mph - N/A   Clear
2:52 AM 1.0 °F -15.8 °F -7.1 °F 69% 30.35 in 10.0 mi NW 11.5 mph - N/A   Clear
3:52 AM -0.0 °F -15.3 °F -6.0 °F 76% 30.36 in 10.0 mi NW 9.2 mph - N/A   Clear
4:52 AM -0.9 °F -16.4 °F -8.0 °F 72% 30.37 in 10.0 mi NW 9.2 mph - N/A   Clear
5:52 AM -2.0 °F -12.2 °F -8.0 °F 76% 30.39 in 10.0 mi WNW 4.6 mph - N/A   Clear
6:52 AM -2.0 °F -17.7 °F -8.0 °F 76% 30.40 in 10.0 mi West 9.2 mph - N/A   Clear
7:52 AM -0.9 °F -15.3 °F -9.0 °F 69% 30.42 in 10.0 mi WNW 8.1 mph - N/A   Clear
8:52 AM 1.0 °F -15.8 °F -7.1 °F 69% 30.43 in 10.0 mi WNW 11.5 mph - N/A   Partly Cloudy
9:52 AM 3.0 °F -13.3 °F -6.0 °F 66% 30.44 in 10.0 mi WNW 11.5 mph 16.1 mph N/A   Partly Cloudy
10:52 AM 5.0 °F -10.8 °F -7.1 °F 58% 30.43 in 10.0 mi WSW 11.5 mph - N/A   Partly Cloudy
11:52 AM 8.1 °F -7.7 °F -6.0 °F 53% 30.41 in 10.0 mi West 12.7 mph - N/A   Clear
12:52 PM 10.0 °F -4.5 °F -6.0 °F 48% 30.39 in 10.0 mi West 11.5 mph 20.7 mph N/A   Clear
1:52 PM 10.9 °F -4.7 °F -4.0 °F 51% 30.38 in 10.0 mi West 13.8 mph 24.2 mph N/A   Clear
2:52 PM 10.9 °F -7.0 °F -5.1 °F 49% 30.38 in 10.0 mi West 18.4 mph 24.2 mph N/A   Clear
3:52 PM 10.9 °F -6.5 °F -4.0 °F 51% 30.37 in 10.0 mi WNW 17.3 mph - N/A   Clear
4:52 PM 10.9 °F -4.7 °F -4.0 °F 51% 30.37 in 10.0 mi West 13.8 mph - N/A   Clear
5:52 PM 10.0 °F -3.7 °F -2.9 °F 56% 30.38 in 10.0 mi WNW 10.4 mph - N/A   Clear
6:52 PM 10.9 °F -2.6 °F -2.9 °F 54% 30.37 in 10.0 mi WNW 10.4 mph - N/A   Clear
7:52 PM 10.0 °F -5.2 °F -2.0 °F 58% 30.37 in 10.0 mi West 12.7 mph - N/A   Clear
8:52 PM 10.0 °F -3.7 °F -2.9 °F 56% 30.38 in 10.0 mi WNW 10.4 mph - N/A   Clear
9:52 PM 10.0 °F -1.9 °F -2.9 °F 56% 30.38 in 10.0 mi WNW 8.1 mph - N/A   Overcast
10:52 PM 10.0 °F -3.7 °F -2.9 °F 56% 30.38 in 10.0 mi WNW 10.4 mph - N/A   Overcast
11:52 PM 10.9 °F -0.8 °F -2.0 °F 56% 30.38 in 10.0 mi West 8.1 mph - N/A   Overcast